[Iaude] MPEC J69: 2024 JL1 [a=2.65,e=0.57,i=11.5,H=23.0]

mpec at cfa.harvard.edu mpec at cfa.harvard.edu
Sat May 4 19:17:59 EDT 2024


M.P.E.C. 2024-J69                                   Issued 2024 May 4, 23:16 UT

     The Minor Planet Electronic Circulars contain information on unusual
         minor planets, routine data on comets and natural satellites,
         and occasional editorial announcements.  They are published
    on behalf of Division F of the International Astronomical Union by the
          Minor Planet Center, Smithsonian Astrophysical Observatory,
                          Cambridge, MA 02138, U.S.A.
			  
             Prepared using the Tamkin Foundation Computer Network

                              MPC at CFA.HARVARD.EDU
            URL https://www.minorplanetcenter.net/    ISSN 1523-6714

                                    2024 JL1                                    


Observations:
     K24J01L*1C2024 05 03.31586013 24 43.474+12 34 38.24         21.57GVEJ069G96
     K24J01L 1C2024 05 03.32102113 24 44.122+12 34 55.88         20.99GVEJ069G96
     K24J01L 1C2024 05 03.32616913 24 44.755+12 35 12.91         21.41GVEJ069G96
     K24J01L 1C2024 05 03.33133213 24 45.418+12 35 30.88         20.69GVEJ069G96
     K24J01L  C2024 05 03.33667213 24 46.076+12 35 49.56         21.37GVEJ069V00
     K24J01L  C2024 05 03.34291213 24 46.854+12 36 10.55         21.13GVEJ069V00
     K24J01L  C2024 05 03.34914313 24 47.621+12 36 31.90         21.33GVEJ069V00
     K24J01L  C2024 05 03.35536913 24 48.395+12 36 53.06         20.83GVEJ069V00
     K24J01L KC2024 05 03.42480113 24 57.182+12 40 48.00               VEJ069I52
     K24J01L KC2024 05 03.42789813 24 57.629+12 40 59.56         21.42GVEJ069I52
     K24J01L KC2024 05 03.43099213 24 58.036+12 41 09.82         21.04GVEJ069I52
     K24J01L KC2024 05 03.43407913 24 58.432+12 41 20.11         21.24GVEJ069I52
     K24J01L KC2024 05 04.16385813 26 42.64 +13 23 08.0          20.9 GXEJ069858
     K24J01L KC2024 05 04.16448713 26 42.961+13 23 10.97         21.57GVEJ069I52
     K24J01L KC2024 05 04.16735113 26 43.285+13 23 21.23         21.65GVEJ069I52
     K24J01L KC2024 05 04.16950113 26 43.577+13 23 28.36         21.63GVEJ069I52
     K24J01L KC2024 05 04.17164413 26 43.861+13 23 36.06         21.42GVEJ069I52
     K24J01L KC2024 05 04.17164513 26 43.65 +13 23 34.0          20.7 GXEJ069858
     K24J01L KC2024 05 04.18166913 26 44.95 +13 24 09.2          20.9 GXEJ069858
     K24J01L !C2024 05 04.21843 13 26 50.10 +13 26 15.9          20.1 GVEJ069673
     K24J01L !C2024 05 04.22160 13 26 50.49 +13 26 26.5                VEJ069673
     K24J01L 1C2024 05 04.94329 13 28 32.78 +14 07 34.0          21.3 VXEJ069033
     K24J01L 1C2024 05 04.94832 13 28 33.46 +14 07 50.8          21.9 VXEJ069033
     K24J01L 1C2024 05 04.95085 13 28 33.79 +14 07 59.2          21.7 VXEJ069033
     K24J01L 1C2024 05 04.95350 13 28 34.15 +14 08 07.8          21.8 VXEJ069033

Observer details:
033 Karl Schwarzschild Observatory, Tautenburg.  Observers S. Melnikov, C.
    Hogner, F. Ludwig, M. Hartmann, B. Stecklum.  Measurer B. Stecklum.
    1.34-m f/3 Schmidt + CCD.
673 Table Mountain Observatory, Wrightwood.  Observer J. Pittichova.  1.0-m
    f/15 reflector + CCD.
858 Tebbutt Observatory, Edgewood.  Observer F. B. Zoltowski.  0.51-m f/8.1
    Schmidt-Cassegrain + CCD.
G96 Mt. Lemmon Survey.  Observer H. Groeller.  Measurers T. Beuden, V. F.
    Carvajal, D. Fay, J. B. Fazekas, D. C. Fuls, A. R. Gibbs, A. D. Grauer, H.
    Groeller, J. K. Hogan, R. A. Kowalski, S. M. Larson, G. J. Leonard, D.
    Rankin, R. L. Seaman, F. C. Shelly, K. W. Wierzchos.  1.5-m reflector +
    10K CCD.
I52 Steward Observatory, Mt. Lemmon Station.  Observer V. F. Carvajal.
    Measurers T. Beuden, V. F. Carvajal, D. Fay, J. B. Fazekas, D. C. Fuls, A.
    R. Gibbs, A. D. Grauer, H. Groeller, J. K. Hogan, R. A. Kowalski, S. M.
    Larson, G. J. Leonard, D. Rankin, R. L. Seaman, F. C. Shelly, K. W.
    Wierzchos.  1.0-m prime focus + CCD.
V00 Kitt Peak-Bok.  Observer R. A. Mastaler.  Measurers M. J. Brucker, C. E.
    Woodward, T. Beuden, V. F. Carvajal, D. Fay, J. B. Fazekas, D. C. Fuls, A.
    R. Gibbs, H. Groeller, J. K. Hogan, R. A. Kowalski, S. M. Larson, C.
    Lejoly, G. J. Leonard, R. A. Mastaler, R. S. McMillan, D. Rankin, R. L.
    Seaman, F. C. Shelly, K. W. Wierzchos.  2.25-m reflector + 4x4K mosaic
    CCD.

Orbital elements:
2024 JL1                                                 Earth MOID = 0.1879 AU
Epoch 2024 Mar. 31.0 TT = JDT 2460400.5                 MPC                     
M 345.19248              (2000.0)            P               Q                  
n   0.22896413     Peri.   49.30161     -0.35945904     +0.93065882             
a   2.6462107      Node   199.95239     -0.90511755     -0.36552734             
e   0.5691739      Incl.   11.54396     -0.22704937     -0.01624543             
P   4.30           H   23.08          G   0.15           U   9                  
Residuals in seconds of arc
240503 G96  0.2-  0.2+    240503 I52  0.2+  0.3+    240504 858  0.0   0.2+
240503 G96  0.0   0.2+    240503 I52  0.2+  0.1+    240504 673  0.4+  0.1+
240503 G96  0.0   0.3-    240503 I52  0.1+  0.1-    240504 673  0.1+  0.2-
240503 G96  0.4+  0.0     240504 858  0.4-  0.5+    240504 033  0.2+  0.3+
240503 V00  0.0   0.2+    240504 I52  0.3+  0.1-    240504 033  0.3+  0.1-
240503 V00  0.1+  0.1-    240504 I52  0.3-  0.2+    240504 033  0.1+  0.3-
240503 V00  0.0   0.0     240504 I52  0.1-  0.1-    240504 033  0.2+  0.8-
240503 V00  0.0   0.1-    240504 I52  0.0   0.2+
240503 I52  0.5-  0.7-    240504 858  0.3-  0.4-

Ephemeris:
2024 JL1                 a,e,i = 2.65, 0.57, 12                  q = 1.1401
Date    TT    R. A. (2000) Decl.     Delta      r    Elong.  Phase     V
2024 04 04    12 48 58.6 -09 52 53   0.3476  1.3470   175.7     3.2    21.8
...
2024 04 19    13 00 52.9 -00 13 35   0.2681  1.2641   164.0    12.7    21.5
...
2024 04 27    13 12 12.9 +06 38 58   0.2403  1.2267   153.8    21.2    21.5
...
2024 05 03    13 24 01.6 +12 16 45   0.2259  1.2023   146.2    27.8    21.5
2024 05 04    13 26 18.6 +13 13 58   0.2240  1.1986   144.9    28.9    21.5
2024 05 05    13 28 41.3 +14 11 09   0.2222  1.1950   143.7    30.0    21.5
...
2024 05 11    13 45 02.2 +19 47 56   0.2147  1.1755   136.7    36.1    21.6
...
2024 05 19    14 12 31.2 +26 31 03   0.2115  1.1558   128.7    43.1    21.7
...
2024 06 03    15 17 50.1 +34 38 59   0.2222  1.1401   119.4    50.8    22.0

A. U. Tomatic                (C) Copyright 2024 MPC           M.P.E.C. 2024-J69





More information about the Iaude mailing list